• In Belarus
  • List of Countries
  • For 7 days
  • Water Temperature
  • Satellite Maps
  • Weather Map
  • Weather Widgets
  • user-avatar
    Login

    Hourly Weather Etchmiadzin

    Today, 17 February, Sunday

    Time Temperature Precipitation Wind Pressure Humidity
    00:00 +2°C° 0 mm 2 mps 686 mmHg 60%
    01:00 +2°C° 0 mm 2 mps 686 mmHg 61%
    02:00 +1°C° 0 mm 2 mps 685 mmHg 61%
    03:00 +1°C° 0 mm 2 mps 685 mmHg 62%
    04:00 -1°C° 0 mm 2 mps 685 mmHg 63%
    05:00 -1°C° 0 mm 2 mps 685 mmHg 63%
    06:00 -2°C° 0 mm 2 mps 685 mmHg 63%
    07:00 -1°C° 0 mm 2 mps 686 mmHg 59%
    08:00 +1°C° 0 mm 2 mps 686 mmHg 55%
    09:00 +2°C° 0 mm 2 mps 686 mmHg 51%
    10:00 +3°C° 0 mm 3 mps 686 mmHg 46%
    11:00 +4°C° 0 mm 4 mps 686 mmHg 42%
    12:00 +5°C° 0 mm 4 mps 686 mmHg 37%
    13:00 +6°C° 0 mm 4 mps 686 mmHg 37%
    14:00 +6°C° 0 mm 4 mps 686 mmHg 36%
    15:00 +6°C° 0 mm 5 mps 686 mmHg 36%
    16:00 +5°C° 0 mm 4 mps 686 mmHg 39%
    17:00 +4°C° 0 mm 3 mps 686 mmHg 42%
    18:00 +4°C° 0 mm 3 mps 687 mmHg 45%
    19:00 +4°C° 0 mm 2 mps 687 mmHg 47%
    20:00 +3°C° 0 mm 2 mps 687 mmHg 48%
    21:00 +2°C° 0 mm 2 mps 687 mmHg 50%
    22:00 +2°C° 0 mm 2 mps 687 mmHg 50%
    23:00 +1°C° 0 mm 2 mps 687 mmHg 51%

    Tomorrow, 18 February, Monday

    Time Temperature Precipitation Wind Pressure Humidity
    00:00 +1°C° 0 mm 2 mps 687 mmHg 51%
    01:00 -1°C° 0 mm 2 mps 687 mmHg 52%
    02:00 -1°C° 0 mm 2 mps 687 mmHg 52%
    03:00 -1°C° 0 mm 2 mps 686 mmHg 53%
    04:00 -2°C° 0 mm 2 mps 686 mmHg 53%
    05:00 -2°C° 0 mm 2 mps 686 mmHg 53%
    06:00 -2°C° 0 mm 2 mps 686 mmHg 53%
    07:00 +1°C° 0 mm 1 mps 686 mmHg 50%
    08:00 +2°C° 0 mm 1 mps 685 mmHg 48%
    09:00 +3°C° 0 mm 1 mps 685 mmHg 45%
    10:00 +3°C° 0 mm 2 mps 684 mmHg 43%
    11:00 +4°C° 0 mm 2 mps 684 mmHg 42%
    12:00 +5°C° 0 mm 2 mps 683 mmHg 40%
    13:00 +6°C° 0 mm 2 mps 682 mmHg 39%
    14:00 +7°C° 0 mm 3 mps 682 mmHg 39%
    15:00 +8°C° 0 mm 3 mps 682 mmHg 38%
    16:00 +7°C° 0 mm 3 mps 682 mmHg 40%
    17:00 +5°C° 0 mm 3 mps 682 mmHg 42%
    18:00 +5°C° 0 mm 3 mps 682 mmHg 45%
    19:00 +4°C° 0 mm 3 mps 682 mmHg 46%
    20:00 +3°C° 0 mm 3 mps 682 mmHg 48%
    21:00 +3°C° 0 mm 2 mps 682 mmHg 50%
    22:00 +3°C° 0 mm 2 mps 682 mmHg 51%
    23:00 +2°C° 0 mm 2 mps 682 mmHg 51%

    Day after tomorrow, 19 February, Tuesday

    Time Temperature Precipitation Wind Pressure Humidity
    00:00 +2°C° 0 mm 2 mps 682 mmHg 52%
    01:00 +1°C° 0 mm 2 mps 682 mmHg 53%
    02:00 +1°C° 0 mm 2 mps 682 mmHg 55%
    03:00 +1°C° 0 mm 2 mps 682 mmHg 56%
    04:00 -1°C° 0 mm 2 mps 682 mmHg 56%
    05:00 -1°C° 0 mm 2 mps 682 mmHg 57%
    06:00 -1°C° 0 mm 2 mps 682 mmHg 58%
    07:00 +1°C° 0 mm 2 mps 683 mmHg 55%
    08:00 +2°C° 0 mm 2 mps 684 mmHg 52%
    09:00 +3°C° 0 mm 2 mps 684 mmHg 50%
    10:00 +3°C° 0 mm 3 mps 684 mmHg 44%
    11:00 +4°C° 0 mm 3 mps 685 mmHg 39%
    12:00 +6°C° 0 mm 4 mps 685 mmHg 34%
    13:00 +6°C° 0 mm 4 mps 685 mmHg 33%
    14:00 +6°C° 0 mm 4 mps 685 mmHg 31%
    15:00 +6°C° 0 mm 5 mps 685 mmHg 29%
    16:00 +5°C° 0 mm 4 mps 686 mmHg 32%
    17:00 +4°C° 0 mm 3 mps 687 mmHg 34%
    18:00 +3°C° 0 mm 3 mps 687 mmHg 37%
    19:00 +2°C° 0 mm 3 mps 688 mmHg 39%
    20:00 +2°C° 0 mm 2 mps 689 mmHg 41%
    21:00 +1°C° 0 mm 2 mps 690 mmHg 43%
    22:00 +1°C° 0 mm 2 mps 690 mmHg 43%
    23:00 -1°C° 0 mm 2 mps 690 mmHg 43%

    20 February, Wednesday

    Time Temperature Precipitation Wind Pressure Humidity
    00:00 -1°C° 0 mm 2 mps 690 mmHg 44%
    01:00 -2°C° 0 mm 2 mps 690 mmHg 44%
    02:00 -2°C° 0 mm 2 mps 690 mmHg 44%
    03:00 -2°C° 0 mm 2 mps 691 mmHg 44%
    04:00 -2°C° 0 mm 2 mps 691 mmHg 43%
    05:00 -3°C° 0 mm 2 mps 691 mmHg 42%
    06:00 -3°C° 0 mm 2 mps 690 mmHg 41%
    07:00 +1°C° 0 mm 1 mps 691 mmHg 39%
    08:00 +2°C° 0 mm 1 mps 691 mmHg 36%
    09:00 +3°C° 0 mm 1 mps 692 mmHg 34%
    10:00 +4°C° 0 mm 1 mps 691 mmHg 32%
    11:00 +6°C° 0 mm 1 mps 691 mmHg 31%
    12:00 +6°C° 0 mm 2 mps 690 mmHg 30%
    13:00 +6°C° 0 mm 2 mps 690 mmHg 29%
    14:00 +7°C° 0 mm 2 mps 690 mmHg 28%
    15:00 +7°C° 0 mm 2 mps 689 mmHg 27%
    16:00 +6°C° 0 mm 2 mps 690 mmHg 29%
    17:00 +5°C° 0 mm 2 mps 690 mmHg 30%
    18:00 +4°C° 0 mm 2 mps 690 mmHg 31%
    19:00 +3°C° 0 mm 2 mps 690 mmHg 31%
    20:00 +3°C° 0 mm 2 mps 691 mmHg 31%
    21:00 +2°C° 0 mm 2 mps 691 mmHg 31%
    22:00 +2°C° 0 mm 2 mps 691 mmHg 31%
    23:00 +1°C° 0 mm 2 mps 691 mmHg 31%

    21 February, Thursday

    Time Temperature Precipitation Wind Pressure Humidity
    00:00 +2°C° 0 mm 1 mps 691 mmHg 31%
    01:00 +1°C° 0 mm 1 mps 690 mmHg 32%
    02:00 +1°C° 0 mm 1 mps 690 mmHg 33%
    03:00 +1°C° 0 mm 1 mps 690 mmHg 35%
    04:00 0°C° 0 mm 1 mps 690 mmHg 36%
    05:00 0°C° 0 mm 1 mps 689 mmHg 38%
    06:00 0°C° 0 mm 1 mps 689 mmHg 39%
    07:00 +1°C° 0 mm 1 mps 689 mmHg 37%
    08:00 +3°C° 0 mm 1 mps 690 mmHg 35%
    09:00 +3°C° 0 mm 0 mps 690 mmHg 32%
    10:00 +5°C° 0 mm 1 mps 689 mmHg 30%
    11:00 +6°C° 0 mm 1 mps 689 mmHg 28%
    12:00 +7°C° 0 mm 1 mps 688 mmHg 25%
    13:00 +7°C° 0 mm 1 mps 688 mmHg 25%
    14:00 +8°C° 0 mm 1 mps 687 mmHg 24%
    15:00 +8°C° 0 mm 1 mps 687 mmHg 24%
    16:00 +7°C° 0 mm 1 mps 687 mmHg 25%
    17:00 +6°C° 0 mm 1 mps 687 mmHg 26%
    18:00 +5°C° 0 mm 1 mps 688 mmHg 27%
    19:00 +5°C° 0 mm 1 mps 688 mmHg 27%
    20:00 +4°C° 0 mm 1 mps 688 mmHg 28%
    21:00 +3°C° 0 mm 1 mps 689 mmHg 28%
    22:00 +3°C° 0 mm 1 mps 689 mmHg 30%
    23:00 +3°C° 0 mm 1 mps 689 mmHg 32%

    22 February, Friday

    Time Temperature Precipitation Wind Pressure Humidity
    00:00 +2°C° 0 mm 1 mps 689 mmHg 34%
    01:00 +2°C° 0 mm 1 mps 689 mmHg 36%
    02:00 +1°C° 0 mm 1 mps 689 mmHg 38%
    03:00 +1°C° 0 mm 1 mps 688 mmHg 40%
    04:00 +1°C° 0 mm 1 mps 688 mmHg 41%
    05:00 0°C° 0 mm 1 mps 688 mmHg 43%
    06:00 0°C° 0 mm 1 mps 688 mmHg 44%
    07:00 +1°C° 0 mm 1 mps 688 mmHg 41%
    08:00 +2°C° 0 mm 1 mps 689 mmHg 39%
    09:00 +3°C° 0 mm 1 mps 689 mmHg 37%
    10:00 +4°C° 0 mm 1 mps 688 mmHg 35%
    11:00 +5°C° 0 mm 1 mps 688 mmHg 34%
    12:00 +6°C° 0 mm 1 mps 687 mmHg 33%
    13:00 +7°C° 0 mm 1 mps 687 mmHg 34%
    14:00 +7°C° 0 mm 1 mps 686 mmHg 34%
    15:00 +6°C° 0 mm 2 mps 686 mmHg 34%
    16:00 +6°C° 0 mm 2 mps 686 mmHg 35%
    17:00 +5°C° 0 mm 2 mps 686 mmHg 36%
    18:00 +4°C° 0 mm 2 mps 687 mmHg 38%
    19:00 +3°C° 0 mm 2 mps 687 mmHg 39%
    20:00 +3°C° 0 mm 2 mps 687 mmHg 40%
    21:00 +3°C° 0 mm 1 mps 688 mmHg 41%
    22:00 +3°C° 0 mm 1 mps 688 mmHg 42%
    23:00 +2°C° 0 mm 1 mps 687 mmHg 44%
    Show more